Temperature
17 17 17 17 17 17 16 16 16 16 16 16 16 16 16 16 16 16 16 15 15 15 15 15 16 16 16 16 16 16 16 16 16 16 15 15 15 14 14 14 14 14 14
17 17 17 17 17 16 16 16 16 16 16 16 16 16 16 16 16 15 15 15 15 15 15 15 15 15 15 15 15 15 15 15 15 15 14 14 14 13 13 13 13 13 13
17 17 17 16 16 16 16 16 16 16 16 16 16 16 15 15 15 15 15 15 15 15 15 15 15 15 15 15 14 14 14 14 14 14 13 13 12 12 12 12 12 12 12
16 16 16 16 16 16 16 16 16 16 16 16 16 15 15 15 15 15 15 15 15 14 14 14 14 14 14 14 14 14 13 13 13 13 13 12 12 11 11 11 11 11 11
16 16 16 16 16 16 16 16 16 15 15 15 15 15 15 15 15 15 15 14 14 14 14 13 13 13 13 13 13 13 13 12 12 12 12 11 11 10 10 10 10 10 10
16 16 16 16 16 15 15 15 15 15 15 15 15 15 15 14 14 14 14 14 13 13 13 13 13 12 12 12 12 12 12 12 11 11 11 10 9 9 9 9 9 9 9
16 16 16 16 15 15 15 15 15 15 15 15 15 14 14 14 14 14 14 13 13 13 12 12 11 11 11 11 11 11 11 11 10 10 9 9 8 8 8 8 8 7 8
16 16 15 15 15 15 15 15 15 15 14 14 14 14 14 13 13 13 13 12 12 12 11 11 11 10 10 10 9 9 9 9 9 9 8 8 8 8 7 7 7 7 7
15 15 15 15 15 15 14 14 14 14 14 14 13 13 13 13 12 12 12 12 11 11 10 10 10 10 9 9 8 8 8 8 8 8 8 7 7 7 7 6 6 7 7
15 15 15 14 14 14 14 14 14 13 13 13 13 12 12 12 11 11 11 11 10 10 9 9 9 9 8 8 7 7 7 7 6 6 6 6 6 5 5 5 5 5 6
14 14 14 14 14 14 14 13 13 13 12 12 12 11 11 11 10 10 10 10 9 9 8 8 8 7 7 7 7 7 7 6 6 6 5 5 5 5 5 4 4 4 4
14 14 14 13 13 13 13 13 12 12 12 11 11 10 10 10 9 9 9 9 8 8 7 7 7 7 6 6 6 6 6 5 5 5 5 5 4 4 4 3 4 3 3
14 13 13 13 13 13 13 12 12 11 11 11 10 9 9 8 8 8 8 8 8 7 7 6 6 6 5 5 5 5 5 5 4 5 4 4 3 3 3 3 3 3 3
13 13 13 12 12 12 11 11 11 11 10 10 9 9 8 7 7 7 7 6 6 6 6 5 5 5 5 5 4 4 4 4 4 4 3 3 3 3 3 3 3 3 3
12 12 11 11 11 11 10 10 10 10 10 9 9 9 8 7 7 6 6 6 5 5 5 5 5 5 5 4 4 4 4 4 3 3 3 3 3 3 3 3 2 3 3
11 11 11 10 10 10 9 9 9 9 8 8 8 8 7 7 6 6 5 5 5 5 5 5 5 5 5 4 4 4 3 3 3 3 3 3 3 3 3 2 2 2 2
11 10 10 10 9 9 9 8 8 7 7 7 6 6 6 6 5 5 5 5 5 5 5 5 4 4 4 4 4 4 3 3 2 2 2 2 2 2 2 2 2 2 2
10 10 9 9 9 8 8 7 7 7 6 5 5 5 5 5 5 5 4 4 4 4 5 5 4 4 4 4 4 3 3 3 2 2 2 2 2 2 2 2 2 1 1
9 9 9 8 8 8 7 7 6 6 5 5 4 4 4 4 4 4 4 4 5 5 5 4 4 4 4 3 3 3 2 2 2 2 2 2 2 2 2 2 2 1 1
8 8 8 8 7 7 7 6 6 6 5 5 4 4 4 4 4 4 4 4 5 5 4 4 4 3 3 3 3 2 3 2 2 2 2 2 2 2 2 2 2 2 2
8 7 7 7 7 7 6 6 6 6 5 5 5 4 4 5 5 4 4 4 4 4 4 4 4 3 3 3 3 2 2 3 2 2 2 2 2 2 2 2 2 2 2
7 7 7 7 6 6 6 6 6 5 5 5 5 4 4 5 5 5 4 4 4 4 4 3 4 3 3 3 3 3 3 2 2 2 2 2 2 2 2 2 2 2 2
7 7 7 6 6 6 6 6 6 6 5 5 5 5 4 5 5 4 4 4 4 4 3 3 3 3 3 3 3 2 2 2 2 2 1 1 2 2 2 1 1 1 2
7 7 7 6 6 6 6 6 6 6 6 6 5 5 5 4 5 4 4 4 4 4 3 3 3 3 3 2 2 2 2 2 2 2 1 1 1 1 1 1 1 1 1
7 7 7 6 6 6 6 6 6 6 6 6 5 5 5 5 5 4 4 4 4 4 3 3 3 3 3 2 2 2 2 2 2 2 2 1 1 1 1 1 1 1 1
7 7 7 7 7 6 6 6 6 6 6 6 5 5 5 5 5 5 4 4 4 4 3 4 3 3 3 3 3 3 3 3 2 2 2 2 1 1 1 1 1 2 2
Wind_Speed
9 9 8 9 9 10 9 10 9 9 10 10 9 9 9 9 8 7 6 6 6 5 4 4 3 1 1 1 2 2 3 3 3 1 2 3 4 4 4 4 3 2 6
8 8 8 8 8 9 9 9 9 9 9 10 9 9 9 8 8 8 7 7 6 6 5 4 3 2 2 1 1 1 1 2 2 1 1 2 3 3 3 3 4 4 4
8 8 8 8 8 8 8 9 9 9 8 8 8 8 8 8 7 7 6 6 5 4 4 4 3 3 3 2 2 2 1 1 1 1 0 2 2 3 3 3 3 4 3
8 8 8 8 8 8 8 8 8 8 8 8 8 7 7 7 7 7 7 7 6 6 6 6 6 5 5 4 4 3 3 2 2 1 1 2 2 3 3 3 3 3 4
8 8 8 7 7 8 8 8 8 8 8 8 7 7 6 6 6 8 8 9 9 9 9 9 10 11 12 9 5 4 3 2 2 2 2 3 4 4 4 4 4 4 3
8 8 8 8 8 8 8 8 8 8 8 8 8 8 7 6 10 11 10 10 10 10 10 10 11 12 15 17 18 16 12 6 4 3 4 4 5 5 5 5 5 6 5
8 8 8 8 8 9 9 9 9 9 9 9 9 9 9 9 14 14 12 10 10 9 9 9 8 9 10 11 13 14 15 15 11 6 7 6 5 6 6 6 6 7 7
8 8 8 8 8 8 9 9 9 9 9 9 9 10 10 11 14 15 15 12 11 10 9 9 10 9 8 8 9 10 10 10 10 8 8 7 7 7 6 6 6 6 6
8 8 8 9 9 9 10 10 9 10 10 10 10 11 12 11 12 13 13 11 11 11 10 9 9 9 8 6 9 9 9 8 12 13 10 8 8 8 9 7 7 7 7
8 8 8 9 10 10 10 10 10 10 11 11 11 10 11 11 10 11 11 10 11 10 9 10 11 10 9 6 7 7 7 6 5 5 5 3 3 4 4 7 8 8 8
8 8 8 9 10 11 10 10 11 11 12 12 12 11 10 10 10 9 8 8 10 10 9 9 9 12 12 12 9 8 5 2 3 3 3 4 4 5 6 8 8 8 8
8 9 9 10 9 10 12 11 12 13 13 12 12 11 9 8 8 10 11 9 8 10 9 10 10 13 13 12 9 6 3 4 3 4 4 5 5 6 6 8 8 8 8
9 10 10 11 10 10 11 12 11 10 10 10 11 11 9 8 10 13 14 13 12 10 11 14 13 13 12 10 8 2 2 4 5 4 5 5 6 6 7 6 6 7 8
11 11 11 11 11 10 8 8 9 9 10 10 10 11 10 9 9 9 10 12 14 13 12 14 11 7 7 7 5 3 5 6 5 5 5 5 5 6 6 7 8 8 7
12 11 11 11 11 11 10 8 8 8 7 9 10 11 11 10 8 8 8 8 9 10 10 8 7 6 5 5 5 5 4 4 5 5 5 5 6 6 6 6 7 8 8
12 11 10 11 11 11 12 13 19 16 18 16 13 12 11 13 13 13 13 13 11 6 6 7 5 5 4 4 4 4 4 4 4 4 5 5 6 6 7 7 7 8 9
12 12 11 11 11 12 12 13 13 15 19 18 16 15 15 15 14 14 13 11 7 4 5 6 5 5 4 4 3 3 4 4 3 4 5 5 6 6 7 7 8 8 9
13 13 12 11 11 11 11 12 12 14 13 10 12 13 14 14 13 12 11 9 7 4 5 6 5 5 4 3 3 3 3 3 3 4 4 5 6 7 7 8 8 9 10
13 11 11 11 11 11 12 12 12 13 13 12 11 9 10 12 11 8 7 5 6 5 5 5 5 4 4 3 3 2 2 3 4 4 4 5 6 6 7 8 8 8 9
12 15 14 12 12 12 11 12 12 12 12 11 10 10 10 10 8 7 5 4 5 5 5 5 4 3 3 2 1 1 1 2 3 4 5 5 6 6 7 8 9 9 9
13 13 15 13 11 11 11 11 11 11 10 10 9 9 6 8 7 7 6 5 4 4 4 4 4 3 2 1 0 1 2 3 3 4 5 5 6 7 7 8 9 9 10
12 11 10 11 10 10 10 10 10 10 11 11 10 10 5 5 6 6 6 5 5 4 4 3 2 2 1 1 0 2 3 3 4 4 5 6 6 7 8 8 9 10 10
11 12 11 10 10 10 9 9 9 9 9 9 9 9 8 6 6 6 5 5 4 4 4 3 2 2 1 0 1 2 3 4 4 5 6 7 7 8 8 9 10 12 12
11 11 11 10 10 9 9 9 8 9 9 9 9 8 8 6 6 6 5 5 4 4 4 3 3 2 1 2 3 3 2 4 6 7 8 8 9 9 9 9 11 12 12
10 10 10 9 9 8 8 8 8 8 8 8 8 7 7 7 6 6 5 5 5 4 4 4 4 4 4 4 5 4 1 3 7 8 9 9 9 9 10 11 11 12 12
9 9 8 8 8 8 8 8 8 8 8 7 7 7 7 6 6 6 5 5 5 5 5 5 5 5 5 6 5 3 4 6 8 9 10 10 10 10 11 11 13 13 13
Wind_Direction
188 190 195 198 196 194 193 194 193 191 188 189 191 188 189 188 187 191 196 183 191 183 185 183 193 255 234 243 258 275 285 289 268 209 101 74 45 19 27 11 12 14 74
184 184 186 191 195 193 191 190 187 187 185 185 186 186 187 185 183 186 191 184 185 180 179 172 173 169 162 296 322 325 343 335 289 261 61 70 54 31 28 359 12 15 44
179 180 179 184 185 184 183 179 178 180 178 179 183 184 184 181 180 182 178 172 163 153 145 142 136 129 121 90 53 46 31 31 350 270 78 43 37 23 3 13 27 5 352
178 180 180 180 177 174 171 168 169 169 170 172 174 174 174 173 169 160 150 136 122 108 100 97 92 90 88 85 78 61 54 60 68 61 76 71 44 26 2 351 352 3 347
178 180 179 174 171 166 159 156 155 154 155 152 149 147 148 153 152 142 136 127 119 110 100 92 84 77 65 60 62 56 56 59 76 77 72 59 41 20 8 353 348 337 347
179 181 173 166 165 163 157 150 144 140 138 136 134 131 125 123 108 114 125 124 121 117 110 102 96 87 81 74 67 59 51 53 56 55 66 61 44 25 7 351 349 337 333
175 172 167 165 163 160 155 149 144 140 135 129 125 120 116 112 109 111 112 120 117 114 113 111 105 98 97 95 88 81 67 56 48 50 66 51 43 26 1 352 358 338 327
171 168 165 162 157 153 148 144 141 138 133 127 125 122 118 113 111 111 110 110 106 103 102 102 103 100 94 99 98 87 77 63 56 58 63 51 43 19 353 336 325 308 291
170 166 163 159 153 148 146 141 137 131 124 120 119 119 118 115 110 113 113 112 107 102 98 96 101 101 79 90 103 98 92 91 85 84 80 80 70 43 5 342 342 328 328
167 159 155 152 146 141 138 134 128 124 121 117 112 112 117 118 109 112 119 121 118 114 107 97 86 91 74 60 98 98 92 80 73 90 96 108 67 60 26 2 349 336 331
155 150 147 143 139 135 129 127 125 122 117 113 108 104 106 110 108 101 108 127 129 125 117 108 97 85 76 62 66 75 66 39 73 63 59 46 34 21 15 11 360 341 333
144 138 136 133 131 129 126 124 124 124 120 117 113 106 101 101 101 97 91 94 109 118 114 111 107 97 85 74 76 67 345 312 55 49 38 28 15 9 5 356 349 336 322
132 128 124 121 120 124 126 127 125 126 126 127 123 117 110 103 94 90 90 89 91 102 104 107 116 125 120 97 91 42 342 46 48 40 30 22 10 2 342 336 331 320 300
128 123 122 120 118 115 116 121 126 129 129 127 124 121 117 114 115 117 114 110 111 111 115 121 125 119 113 114 136 93 62 49 32 32 21 12 1 353 348 346 339 335 328
124 122 120 117 114 106 93 82 99 87 106 124 127 127 128 124 113 105 123 126 126 124 135 139 137 132 117 102 88 69 58 53 39 28 13 5 359 353 349 347 340 331 333
124 123 121 119 116 113 107 89 66 76 73 74 82 104 102 107 112 103 97 96 103 137 148 128 123 117 106 96 87 79 64 48 29 16 7 0 354 350 348 346 343 339 336
128 128 125 124 123 121 120 117 109 84 72 72 79 92 106 115 115 115 115 118 135 191 146 122 119 112 103 97 86 70 59 50 17 6 4 358 351 347 347 345 344 342 338
121 121 122 122 123 124 122 122 122 122 116 101 85 93 110 118 122 129 139 150 152 173 129 123 122 118 111 98 82 66 50 38 18 4 1 355 349 345 343 341 342 345 335
120 121 119 121 122 122 122 123 124 124 124 124 124 115 115 123 130 149 182 169 135 135 127 124 123 121 111 97 79 58 36 20 10 347 355 350 344 340 341 338 335 336 323
113 117 121 122 123 125 126 127 128 129 130 134 139 141 148 156 149 156 166 142 135 132 130 128 123 117 110 101 91 42 4 360 350 341 350 342 339 336 335 332 332 331 330
118 120 123 123 125 127 129 132 134 135 137 140 139 137 153 159 149 149 148 145 140 134 132 131 136 144 142 153 105 331 320 340 344 340 338 335 334 332 329 328 328 327 328
122 124 123 121 124 128 130 133 135 137 142 142 140 148 187 180 151 153 150 150 145 144 144 156 163 143 120 90 319 311 317 327 334 333 330 327 325 325 325 326 328 327 326
126 127 126 126 126 129 138 141 144 147 148 148 148 154 170 168 157 157 156 153 153 160 160 171 189 177 153 213 288 296 305 323 330 328 320 318 320 322 323 324 322 322 324
129 131 132 134 138 146 146 148 153 153 153 153 155 159 165 166 166 161 166 163 169 175 180 192 208 211 244 273 275 274 299 324 317 308 308 309 310 314 317 318 317 321 321
135 137 139 142 147 151 154 157 157 159 160 161 163 168 171 174 174 174 178 177 184 191 199 213 222 229 243 263 275 288 1 303 291 296 297 294 299 304 307 310 314 315 317
142 145 148 152 157 160 162 163 164 167 169 171 172 176 180 182 183 184 188 192 200 202 213 225 233 244 254 258 259 259 261 266 268 273 280 287 293 299 307 308 311 312 314
Height
1511 1513 1516 1518 1520 1522 1524 1527 1530 1534 1537 1540 1543 1546 1548 1551 1553 1554 1557 1558 1560 1562 1564 1565 1567 1568 1570 1571 1572 1572 1573 1573 1573 1573 1573 1572 1571 1571 1570 1570 1570 1569 1567
1510 1512 1514 1515 1517 1520 1522 1524 1527 1530 1533 1537 1540 1543 1546 1548 1550 1552 1555 1557 1559 1560 1562 1564 1565 1566 1567 1568 1569 1569 1570 1570 1571 1570 1570 1570 1568 1568 1567 1567 1567 1567 1564
1508 1510 1512 1514 1515 1517 1519 1522 1525 1528 1532 1535 1538 1541 1543 1546 1548 1550 1553 1555 1557 1558 1560 1561 1562 1564 1564 1565 1566 1567 1567 1567 1568 1568 1568 1567 1567 1566 1565 1565 1564 1562 1562
1507 1509 1510 1512 1514 1516 1518 1521 1524 1527 1530 1532 1535 1538 1541 1543 1546 1548 1550 1552 1554 1556 1557 1559 1560 1561 1562 1563 1563 1564 1564 1565 1565 1566 1566 1565 1565 1563 1563 1563 1562 1560 1559
1505 1507 1508 1510 1512 1515 1517 1519 1522 1525 1528 1531 1533 1536 1538 1541 1543 1545 1548 1550 1552 1553 1555 1557 1558 1559 1560 1561 1562 1562 1562 1563 1564 1564 1564 1564 1563 1561 1561 1560 1560 1558 1556
1503 1505 1507 1509 1511 1513 1515 1518 1520 1523 1526 1529 1531 1534 1536 1539 1541 1544 1546 1548 1550 1552 1554 1555 1557 1558 1559 1560 1560 1560 1561 1561 1561 1562 1562 1562 1560 1560 1559 1558 1558 1556 1555
1501 1503 1504 1507 1509 1511 1513 1516 1518 1521 1524 1526 1529 1532 1535 1537 1539 1542 1545 1547 1549 1551 1553 1554 1556 1556 1558 1558 1559 1559 1559 1559 1560 1560 1560 1560 1559 1558 1557 1556 1555 1553 1551
1499 1501 1503 1505 1507 1509 1511 1514 1517 1520 1522 1525 1528 1531 1534 1536 1538 1541 1543 1546 1548 1550 1552 1553 1554 1555 1557 1558 1559 1559 1558 1558 1558 1558 1558 1558 1557 1556 1555 1554 1553 1551 1549
1498 1499 1501 1503 1505 1507 1510 1512 1515 1518 1521 1524 1527 1530 1532 1535 1538 1540 1543 1545 1547 1549 1551 1552 1554 1555 1556 1557 1558 1558 1558 1558 1558 1557 1557 1556 1555 1554 1553 1553 1551 1550 1549
1496 1498 1500 1502 1504 1506 1508 1511 1514 1516 1519 1523 1526 1529 1532 1534 1537 1540 1543 1545 1546 1548 1550 1552 1554 1555 1556 1557 1558 1558 1558 1558 1558 1557 1556 1555 1555 1553 1552 1550 1550 1549 1547
1495 1497 1499 1501 1503 1505 1508 1510 1513 1516 1519 1522 1525 1528 1531 1534 1537 1539 1542 1544 1546 1548 1550 1551 1553 1554 1556 1557 1557 1558 1557 1557 1558 1558 1557 1557 1555 1554 1552 1550 1547 1546 1544
1493 1495 1498 1500 1502 1505 1507 1509 1512 1515 1519 1522 1524 1527 1530 1533 1536 1539 1541 1543 1546 1548 1550 1551 1552 1554 1555 1555 1556 1556 1557 1558 1558 1558 1558 1556 1555 1553 1551 1548 1545 1543 1541
1491 1493 1496 1499 1502 1504 1506 1509 1512 1515 1518 1521 1524 1527 1530 1533 1536 1539 1541 1543 1545 1547 1549 1550 1552 1554 1555 1555 1556 1556 1557 1558 1558 1558 1557 1556 1554 1551 1549 1547 1545 1542 1539
1489 1492 1495 1498 1501 1504 1507 1510 1512 1515 1518 1521 1523 1526 1530 1533 1536 1539 1541 1543 1545 1547 1549 1550 1552 1554 1555 1556 1557 1558 1558 1557 1557 1557 1556 1555 1553 1551 1549 1547 1544 1541 1539
1488 1491 1494 1497 1500 1503 1507 1510 1513 1516 1518 1521 1524 1527 1530 1533 1536 1539 1541 1544 1546 1548 1550 1552 1555 1557 1558 1558 1559 1559 1559 1558 1558 1557 1556 1555 1553 1551 1549 1546 1543 1541 1538
1487 1491 1494 1497 1501 1504 1506 1510 1514 1517 1520 1523 1526 1529 1532 1535 1537 1540 1543 1545 1547 1549 1552 1554 1556 1558 1558 1559 1559 1559 1559 1558 1557 1557 1556 1554 1552 1550 1548 1545 1543 1540 1537
1488 1491 1494 1498 1501 1505 1508 1511 1514 1519 1523 1526 1529 1532 1534 1537 1539 1542 1545 1547 1549 1551 1554 1556 1557 1558 1559 1559 1560 1560 1559 1558 1556 1556 1555 1554 1552 1550 1547 1545 1542 1539 1536
1489 1492 1495 1499 1503 1506 1509 1513 1516 1519 1524 1528 1532 1535 1537 1540 1542 1544 1547 1549 1552 1554 1556 1557 1558 1559 1559 1559 1560 1559 1559 1558 1557 1556 1555 1553 1551 1549 1547 1544 1541 1538 1534
1490 1494 1497 1501 1505 1508 1512 1516 1520 1523 1526 1530 1533 1537 1540 1542 1545 1547 1549 1553 1554 1556 1557 1557 1558 1559 1559 1559 1559 1559 1558 1558 1557 1556 1554 1552 1550 1548 1546 1543 1540 1537 1533
1493 1496 1500 1503 1507 1511 1515 1519 1522 1525 1529 1532 1536 1539 1541 1544 1547 1549 1551 1554 1555 1556 1557 1558 1558 1559 1559 1559 1558 1558 1558 1557 1556 1555 1554 1552 1550 1547 1545 1542 1539 1536 1533
1497 1500 1504 1507 1511 1514 1518 1522 1525 1528 1531 1535 1538 1541 1543 1547 1549 1550 1552 1554 1555 1556 1557 1557 1558 1558 1558 1558 1558 1557 1557 1557 1556 1554 1553 1551 1548 1546 1544 1541 1538 1535 1532
1501 1504 1508 1511 1514 1517 1521 1525 1528 1531 1534 1537 1539 1542 1544 1548 1550 1551 1553 1554 1555 1556 1556 1557 1558 1558 1558 1557 1557 1556 1556 1555 1554 1553 1551 1549 1547 1545 1542 1540 1537 1534 1530
1505 1508 1511 1514 1517 1520 1524 1527 1530 1533 1536 1539 1541 1543 1545 1548 1550 1551 1552 1553 1554 1555 1555 1556 1556 1557 1557 1556 1555 1555 1554 1554 1552 1550 1549 1547 1545 1543 1541 1538 1535 1532 1529
1509 1512 1514 1517 1521 1524 1527 1530 1532 1535 1537 1540 1541 1544 1546 1547 1549 1550 1551 1552 1553 1554 1554 1555 1555 1555 1555 1554 1554 1553 1552 1551 1549 1548 1546 1544 1543 1541 1539 1536 1533 1530 1526
1513 1515 1518 1521 1523 1526 1529 1531 1534 1536 1538 1540 1542 1543 1545 1547 1548 1549 1550 1551 1552 1552 1553 1553 1554 1554 1553 1553 1552 1551 1549 1548 1546 1545 1543 1542 1540 1538 1536 1533 1530 1527 1524
1516 1518 1521 1523 1525 1528 1530 1532 1534 1536 1538 1540 1541 1543 1544 1545 1547 1548 1549 1549 1550 1551 1551 1552 1552 1551 1551 1551 1550 1548 1547 1545 1544 1542 1540 1539 1537 1535 1533 1530 1527 1524 1521